This demonstration page uses our WeatherBlox Daily Observations layout. Learn more.

Left ArrowRight Arrow

Hourly Observations for November 13, 2016

Temp ( °F °C ) Dew Point ( °F °C ) Humidity (%) Winds ( mph kmh ) Pressure ( in mb ) Visibility ( mi km ) Precip ( " mm )
12:51 am 00:51 Clear 55 12.8 38 3.3 53 53 SE 9 15 30.11 1020 10 16.0934 N/A
1:51 am 01:51 Clear 50 10 39 3.9 66 66 E 7 11 30.11 1020 10 16.0934 N/A
2:51 am 02:51 Clear 48 8.9 38 3.3 68 68 SE 5 7 30.11 1020 10 16.0934 N/A
3:51 am 03:51 Clear 48 8.9 38 3.3 68 68 ESE 5 7 30.11 1020 10 16.0934 N/A
4:51 am 04:51 Clear 45 7.2 39 3.9 80 80 WNW 7 11 30.13 1020 10 16.0934 N/A
5:51 am 05:51 Clear 44 6.7 38 3.3 79 79 NNW 6 9 30.14 1021 10 16.0934 N/A
6:51 am 06:51 Sunny 42 5.6 38 3.3 85 85 N N/A 30.18 1022 10 16.0934 N/A
7:51 am 07:51 Sunny 50 10 40 4.4 68 68 N N/A 30.19 1022 10 16.0934 N/A
8:51 am 08:51 Sunny 57 13.9 40 4.4 53 53 N N/A 30.19 1022 10 16.0934 N/A
9:51 am 09:51 Sunny 62 16.7 39 3.9 43 43 SE 6 9 30.19 1022 10 16.0934 N/A
10:51 am 10:51 Sunny 65 18.3 39 3.9 39 39 SE 7 11 30.16 1022 10 16.0934 N/A
11:51 am 11:51 Sunny 67 19.4 39 3.9 36 36 S 6 9 30.13 1020 10 16.0934 N/A
12:51 pm 12:51 Sunny 70 21.1 38 3.3 31 31 VRB 7 11 30.08 1019 10 16.0934 N/A
1:51 pm 13:51 Sunny 72 22.2 37 2.8 28 28 N N/A 30.05 1018 10 16.0934 N/A
2:51 pm 14:51 Sunny 73 22.8 37 2.8 27 27 SW 5 7 30.03 1017 10 16.0934 N/A
3:51 pm 15:51 Sunny 74 23.3 36 2.2 25 25 N N/A 30.03 1017 10 16.0934 N/A
4:51 pm 16:51 Sunny 71 21.7 36 2.2 28 28 N N/A 30.04 1017 10 16.0934 N/A
5:51 pm 17:51 Clear 64 17.8 38 3.3 38 38 N N/A 30.06 1018 10 16.0934 N/A
6:51 pm 18:51 Clear 57 13.9 39 3.9 51 51 N 3 6 30.09 1019 10 16.0934 N/A
7:51 pm 19:51 Clear 56 13.3 38 3.3 51 51 NW 6 9 30.09 1019 10 16.0934 N/A
8:51 pm 20:51 Clear 53 11.7 38 3.3 57 57 SE 5 7 30.09 1019 10 16.0934 N/A
9:51 pm 21:51 Clear 52 11.1 38 3.3 59 59 N N/A 30.09 1019 10 16.0934 N/A
10:51 pm 22:51 Clear with Light Rain 50 10 38 3.3 63 63 S 5 7 30.09 1019 10 16.0934 N/A
11:51 pm 23:51 Clear 46 7.8 38 3.3 73 73 N N/A 30.11 1020 10 16.0934 N/A

Powered by AerisWeather